Terminal Aerodrome Forecast
Issued by NWS Mobile, AL

Home | Current Version | Previous Version | Text Only | Print | Product List | Glossary On
Versions: 1 2 3 4 5 6 7 8 9 10 11 12 13 14 15 16 17 18 19 20 21 22 23 24 25 26
000
FTUS44 KMOB 190500
TAFPNS
TAF
KPNS 190535Z 1906/2006 VRB03KT P6SM BKN140
     FM190900 00000KT 3SM BR BKN150
     FM191400 12010KT P6SM SCT040
     FM192100 15010KT P6SM VCTS SCT040CB SCT250=

USA.gov is the U.S. government's official web portal to all federal, state and local government web resources and services.